Weather History for Dumas, TX

Change the Weather History Date:

Saturday, May 26, 2012

  Actual Average (KBGD) Record (KBGD)
Temperature  
Mean Temperature 80 °F 71 °F  
Max Temperature 93 °F 84 °F 101 °F (1953)
Min Temperature 68 °F 59 °F 40 °F (1950)
Degree Days  
Heating Degree Days 0 1  
Month to date heating degree days 59  
Since 1 July heating degree days 3762  
Cooling Degree Days 16 7  
Month to date cooling degree days 116  
Year to date cooling degree days 160  
Growing Degree Days 30 (Base 50)    
Moisture  
Dew Point 51 °F    
Average Humidity 37    
Maximum Humidity 60    
Minimum Humidity 20    
Precipitation  
Precipitation 0.00 in 0.12 in 1.53 in (1987)
Month to date precipitation 2.22  
Year to date precipitation 6.38  
Snow  
Snow 0.00 in - T in (1982)
Month to date snowfall  
Since 1 July snowfall  
Snow Depth -    
Sea Level Pressure  
Sea Level Pressure 29.85 in    
Wind  
Wind Speed 24 mph (South)    
Max Wind Speed 40 mph    
Max Gust Speed 51 mph    
Visibility 9 miles    
Events      
T = Trace of Precipitation, MM = Missing Value Source: NWS Daily Summary

Daily Weather History Graph

Daily Weather History Graph

Search for Another Location

Airport:

Trip Planner

Search our weather history database for the weather conditions in past years. The results will help you decide how hot, cold, wet, or windy it might be!

Date:

Astronomy

May. 26, 2012 Rise Set
Actual Time 6:35 AM CDT 8:55 PM CDT
Civil Twilight 6:05 AM CDT 9:24 PM CDT
Nautical Twilight 5:30 AM CDT 10:00 PM CDT
Astronomical Twilight 4:50 AM CDT 10:40 PM CDT
Moon 11:34 AM CDT (5/26) 12:35 AM CDT (5/26)
Length of Visible Light 15h 18m
Length of Day
14h 20m
Waxing Crescent, 28% of the Moon is Illuminated
May 26
Waxing Crescent
May 28
First Quarter
Jun 4
Full
Jun 11
Last Quarter
Jun 19
New

Hourly Weather History & Observations

Time (CDT) Temp. Heat Index Dew Point Humidity Pressure Visibility Wind Dir Wind Speed Gust Speed Precip Events Conditions
12:15 AM 78.8 °F - 41.0 °F 26% 29.85 in 10.0 mi South 20.7 mph 24.2 mph N/A   Clear
12:35 AM 78.8 °F - 44.6 °F 30% 29.86 in 10.0 mi South 23.0 mph - N/A   Clear
12:55 AM 78.8 °F - 46.4 °F 32% 29.86 in 10.0 mi South 26.5 mph 29.9 mph N/A   Clear
1:15 AM 78.8 °F - 51.8 °F 39% 29.86 in 10.0 mi South 31.1 mph 38.0 mph N/A   Clear
1:35 AM 78.8 °F - 53.6 °F 42% 29.86 in 10.0 mi South 25.3 mph 36.8 mph N/A   Clear
1:55 AM 77.0 °F - 53.6 °F 44% 29.87 in 10.0 mi South 26.5 mph 36.8 mph N/A   Clear
2:15 AM 77.0 °F - 53.6 °F 44% 29.86 in 10.0 mi South 26.5 mph 33.4 mph N/A   Clear
2:35 AM 77.0 °F - 53.6 °F 44% 29.86 in 10.0 mi SSW 25.3 mph 31.1 mph N/A   Clear
2:55 AM 75.2 °F - 53.6 °F 47% 29.86 in 10.0 mi SSW 20.7 mph 27.6 mph N/A   Clear
3:15 AM 73.4 °F - 53.6 °F 50% 29.87 in 10.0 mi South 19.6 mph 26.5 mph N/A   Clear
3:35 AM 73.4 °F - 53.6 °F 50% 29.86 in 10.0 mi South 21.9 mph 26.5 mph N/A   Clear
3:55 AM 73.4 °F - 53.6 °F 50% 29.87 in 10.0 mi South 20.7 mph 26.5 mph N/A   Clear
4:15 AM 73.4 °F - 53.6 °F 50% 29.87 in 10.0 mi SSW 20.7 mph 26.5 mph N/A   Clear
4:35 AM 71.6 °F - 53.6 °F 53% 29.86 in 10.0 mi South 18.4 mph - N/A   Clear
4:55 AM 71.6 °F - 53.6 °F 53% 29.86 in 10.0 mi South 21.9 mph 25.3 mph N/A   Clear
5:15 AM 71.6 °F - 53.6 °F 53% 29.86 in 10.0 mi South 18.4 mph - N/A   Clear
5:35 AM 71.6 °F - 53.6 °F 53% 29.87 in 10.0 mi SSW 18.4 mph - N/A   Clear
5:55 AM 69.8 °F - 53.6 °F 56% 29.88 in 5.0 mi South 12.7 mph - N/A   Haze
6:15 AM 68.0 °F - 53.6 °F 60% 29.88 in 5.0 mi South 12.7 mph 18.4 mph N/A   Haze
6:35 AM 69.8 °F - 51.8 °F 53% 29.89 in 10.0 mi South 16.1 mph - N/A   Clear
6:55 AM 69.8 °F - 51.8 °F 53% 29.91 in 10.0 mi South 16.1 mph - N/A   Clear
7:15 AM 69.8 °F - 51.8 °F 53% 29.92 in 10.0 mi South 17.3 mph - N/A   Clear
7:35 AM 69.8 °F - 51.8 °F 53% 29.92 in 10.0 mi South 17.3 mph 20.7 mph N/A   Clear
7:55 AM 71.6 °F - 51.8 °F 50% 29.93 in 10.0 mi South 17.3 mph 21.9 mph N/A   Clear
8:15 AM 71.6 °F - 51.8 °F 50% 29.93 in 10.0 mi South 25.3 mph 31.1 mph N/A   Clear
8:35 AM 73.4 °F - 51.8 °F 47% 29.93 in 10.0 mi South 29.9 mph 33.4 mph N/A   Clear
8:55 AM 77.0 °F - 51.8 °F 41% 29.93 in 10.0 mi South 24.2 mph 34.5 mph N/A   Clear
9:15 AM 77.0 °F - 51.8 °F 41% 29.94 in 10.0 mi South 27.6 mph 35.7 mph N/A   Clear
9:35 AM 78.8 °F - 50.0 °F 36% 29.94 in 10.0 mi South 31.1 mph 39.1 mph N/A   Clear
9:55 AM 80.6 °F - 50.0 °F 34% 29.93 in 10.0 mi South 32.2 mph 40.3 mph N/A   Clear
10:15 AM 80.6 °F - 51.8 °F 37% 29.93 in 10.0 mi South 26.5 mph 36.8 mph N/A   Clear
10:35 AM 82.4 °F - 51.8 °F 35% 29.93 in 10.0 mi SSW 28.8 mph 38.0 mph N/A   Clear
10:55 AM 84.2 °F - 51.8 °F 33% 29.93 in 10.0 mi SSW 31.1 mph 40.3 mph N/A   Clear
11:15 AM 84.2 °F - 51.8 °F 33% 29.92 in 10.0 mi South 29.9 mph 34.5 mph N/A   Clear
11:35 AM 86.0 °F - 51.8 °F 31% 29.92 in 10.0 mi SSW 28.8 mph 36.8 mph N/A   Clear
11:55 AM 86.0 °F - 51.8 °F 31% 29.92 in 10.0 mi South 24.2 mph 31.1 mph N/A   Clear
12:15 PM 87.8 °F - 51.8 °F 29% 29.91 in 10.0 mi South 21.9 mph - N/A   Clear
12:35 PM 87.8 °F - 50.0 °F 27% 29.91 in 10.0 mi South 25.3 mph 32.2 mph N/A   Clear
12:55 PM 89.6 °F - 50.0 °F 26% 29.90 in 10.0 mi SSW 24.2 mph 31.1 mph N/A   Clear
1:15 PM 89.6 °F - 50.0 °F 26% 29.89 in 10.0 mi SSW 23.0 mph 32.2 mph N/A   Clear
1:35 PM 91.4 °F - 50.0 °F 24% 29.88 in 10.0 mi South 20.7 mph 36.8 mph N/A   Clear
1:55 PM 91.4 °F - 50.0 °F 24% 29.87 in 10.0 mi South 23.0 mph 32.2 mph N/A   Clear
2:15 PM 91.4 °F - 50.0 °F 24% 29.86 in 10.0 mi South 28.8 mph 35.7 mph N/A   Clear
2:35 PM 91.4 °F - 48.2 °F 23% 29.86 in 10.0 mi SSW 27.6 mph 34.5 mph N/A   Clear
2:55 PM 93.2 °F - 46.4 °F 20% 29.85 in 10.0 mi South 27.6 mph 36.8 mph N/A   Clear
3:15 PM 91.4 °F - 48.2 °F 23% 29.84 in 7.0 mi South 32.2 mph 39.1 mph N/A   Clear
3:35 PM 91.4 °F - 50.0 °F 24% 29.83 in 4.0 mi South 27.6 mph 39.1 mph N/A   Haze
3:55 PM 93.2 °F - 48.2 °F 21% 29.82 in 7.0 mi South 28.8 mph 41.4 mph N/A   Scattered Clouds
4:15 PM 91.4 °F - 50.0 °F 24% 29.81 in 5.0 mi South 32.2 mph 39.1 mph N/A   Haze
4:35 PM 91.4 °F - 50.0 °F 24% 29.81 in 7.0 mi South 29.9 mph 39.1 mph N/A   Scattered Clouds
4:55 PM 91.4 °F - 50.0 °F 24% 29.80 in 10.0 mi South 26.5 mph 43.7 mph N/A   Clear
5:15 PM 91.4 °F - 50.0 °F 24% 29.80 in 7.0 mi South 31.1 mph 39.1 mph N/A   Clear
5:35 PM 91.4 °F - 50.0 °F 24% 29.79 in 7.0 mi South 26.5 mph 41.4 mph N/A   Clear
5:55 PM 91.4 °F - 48.2 °F 23% 29.78 in 7.0 mi South 28.8 mph 41.4 mph N/A   Clear
6:15 PM 91.4 °F - 48.2 °F 23% 29.78 in 10.0 mi South 29.9 mph 40.3 mph N/A   Clear
6:35 PM 89.6 °F - 46.4 °F 22% 29.77 in 7.0 mi South 34.5 mph 42.6 mph N/A   Clear
6:55 PM 89.6 °F 87.3 °F 53.6 °F 29% 29.76 in 7.0 mi South 33.4 mph 40.3 mph N/A   Clear
7:15 PM 87.8 °F 85.7 °F 53.6 °F 31% 29.76 in 1.8 mi SSE 33.4 mph 47.2 mph N/A   Haze
7:35 PM 87.8 °F 85.7 °F 53.6 °F 31% 29.76 in 7.0 mi SSE 33.4 mph 42.6 mph N/A   Scattered Clouds
7:55 PM 86.0 °F - 51.8 °F 31% 29.76 in 7.0 mi South 32.2 mph 44.9 mph N/A   Clear
8:15 PM 86.0 °F - 51.8 °F 31% 29.77 in 5.0 mi South 31.1 mph 44.9 mph N/A   Haze
8:35 PM 86.0 °F - 51.8 °F 31% 29.78 in 7.0 mi South 26.5 mph 40.3 mph N/A   Clear
8:55 PM 84.2 °F - 48.2 °F 29% 29.74 in 5.0 mi South 40.3 mph 50.6 mph N/A   Haze
9:15 PM 80.6 °F - 41.0 °F 24% 29.77 in 4.0 mi SSE 33.4 mph 47.2 mph N/A   Haze
9:35 PM 75.2 °F - 48.2 °F 38% 29.80 in 10.0 mi SE 21.9 mph 34.5 mph N/A   Scattered Clouds
9:55 PM 75.2 °F - 51.8 °F 44% 29.80 in 10.0 mi SSE 27.6 mph 32.2 mph N/A   Clear
10:15 PM 77.0 °F - 51.8 °F 41% 29.81 in 10.0 mi SE 18.4 mph 29.9 mph N/A   Clear
10:35 PM 75.2 °F - 53.6 °F 47% 29.80 in 10.0 mi SSE 21.9 mph 25.3 mph N/A   Clear
10:55 PM 77.0 °F - 51.8 °F 41% 29.81 in 10.0 mi SSE 21.9 mph 26.5 mph N/A   Clear
11:15 PM 77.0 °F - 50.0 °F 39% 29.82 in 10.0 mi SSE 23.0 mph 31.1 mph N/A   Clear
11:35 PM 77.0 °F - 50.0 °F 39% 29.82 in 10.0 mi SSE 23.0 mph 29.9 mph N/A   Clear
11:55 PM 77.0 °F - 50.0 °F 39% 29.81 in 10.0 mi SSE 24.2 mph 31.1 mph N/A   Clear